Regional Weather Roundup
Issued by NWS

Home | Current Version | Previous Version | Text Only | Print | Product List | Glossary On
Versions: 1 2 3 4 5 6 7 8 9 10 11 12 13 14 15 16 17 18 19 20 21 22 23 24 25 26 27 28 29 30 31 32 33 34 35 36 37 38 39 40 41 42 43 44 45 46 47 48 49 50
075
ASUS45 KBOU 051707
RWRCO

WEATHER ROUNDUP FOR COLORADO
NATIONAL WEATHER SERVICE DENVER/BOULDER CO
1000 AM MST MON DEC 05 2016

NOTE: "FAIR" INDICATES FEW OR NO CLOUDS BELOW 12000 FEET WITH NO
SIGNIFICANT WEATHER AND/OR OBSTRUCTIONS TO VISIBILITY.

COZ001>005-013-030-031-051800-
...NORTHWEST COLORADO...

CITY           SKY/WX    TMP DP  RH WIND       PRES   REMARKS
CRAIG          CLOUDY    28  15  58 W9        29.85  WCI  19
HAYDEN         CLOUDY    23  12  63 NW16G24   29.83R WCI  10
MEEKER         PTSUNNY   34  17  50 NW12      29.80  WCI  25
MOUNT WERNER   NOT AVBL
STEAMBOAT SPGS CLOUDY    23  18  81 W13       29.80R WCI  11
WALDEN           N/A     21  16  79 W15       29.75R WCI   8
$$

COZ006>008-011-051800-
...WEST CENTRAL VALLEYS...

CITY           SKY/WX    TMP DP  RH WIND       PRES   REMARKS
GRAND JUNCTION FAIR      33  21  61 SW3       29.86
MONTROSE       FAIR      37  20  50 NW6       29.87
EAGLE          MOSUNNY   34  14  44 W9        29.80R WCI  26
RIFLE          FAIR      31  20  63 VRB3      29.84
DELTA          NOT AVBL
NUCLA          FAIR      36  14  41 CALM      29.91S
$$

COZ017>023-064>068-051800-
...SOUTHWEST COLORADO...

CITY           SKY/WX    TMP DP  RH WIND       PRES   REMARKS
DURANGO        FAIR      30  21  69 E5        29.91  WCI  25
CORTEZ         FAIR      38  25  59 CALM      29.91
PAGOSA SPRINGS NOT AVBL
TELLURIDE      PTSUNNY   36  13  39 W7        29.91R
WOLF CREEK PAS FAIR      18  10  73 SW14G22   29.94S WCI   4
$$

COZ009-010-012-014-032>034-037-058>063-051800-
...CENTRAL COLORADO...

CITY           SKY/WX    TMP DP  RH WIND       PRES   REMARKS
ASPEN          PTSUNNY   33  15  47 NE5       29.79  WCI  29
BUENA VISTA    CLOUDY    38  12  35 W17G26    29.77R
COPPER MTN     NOT AVBL
BERTHOUD PASS  HVY SNOW  10   0  61 W35G60    29.66F VSB<1/4 WCI -13
COTTONWOOD PAS CLOUDY    32  14  47 W3G24     29.78R
GUNNISON       FLURRIES  23  11  60 CALM      29.86S
KREMMLING      PTSUNNY   41  18  38 W16       29.73R
LEADVILLE      LGT SNOW  25  14  63 NW14G25   29.76R WCI  13
MONARCH PASS   CLOUDY    18  10  73 W48G67    29.87F HAZE    WCI  -6
SALIDA         NOT AVBL
SUNLIGHT       CLOUDY    19  12  73 SW15G29   29.82R WCI   5
WILKERSON PASS FAIR      27  14  59 SW16G28   29.77S WCI  14
$$

COZ069>075-051800-
...SAN LUIS VALLEY/SANGRE DE CRISTO MOUNTAINS...

CITY           SKY/WX    TMP DP  RH WIND       PRES   REMARKS
ALAMOSA        FAIR      24  13  62 S5        29.82F WCI  18
LA VETA PASS   FAIR      34  14  44 NE22G35   29.81S WCI  22
SAGUACHE       PTSUNNY   32  12  43 CALM      29.84S
$$

COZ035-036-038>040-051800-
...NORTHERN COLORADO FRONT RANGE...

CITY           SKY/WX    TMP DP  RH WIND       PRES   REMARKS
DENVER INTL AP FAIR      54  22  28 W22G31    29.61
DMNS CITY PARK   N/A     52  22  30 SW3G21    29.65R
AURORA         MOSUNNY   52  21  30 W20G25    29.64R
FRONT RANGE AP MOSUNNY   54  25  32 W15G21    29.63R
ERIE MUNI ARPT FAIR      53  16  23 SW16G30   29.64R
BOULDER MUN AP CLOUDY    52  18  25 W14G25    29.65R
CENTENNIAL     PTSUNNY   51  21  30 W15       29.64
BROOMFIELD     PTSUNNY   50  19  29 W25G31    29.67R
FORT COLLINS   FAIR      50  21  32 W17G26    29.64R
LONGMONT       FAIR      52  21  30 SW18      29.67R
$$

COZ041-046-047-076>085-087-088-051800-
...PIKES PEAK/PALMER DIVIDE AND SOUTHERN FOOTHILLS...

CITY           SKY/WX    TMP DP  RH WIND       PRES   REMARKS
COLO. SPRINGS  FAIR      54  13  19 VRB3      29.65R
A. F. ACADEMY  FAIR      52  13  21 NW18G32   29.64R
SCHRIEVER AFB  NOT AVBL
ELLICOTT       FAIR     N/A N/A N/A CALM      29.63R
FALCON         FAIR      51  11  20 W28G36    29.66S
FORT CARSON    FAIR      55  14  19 W21G30    29.61S
LIMON          FAIR      53  17  24 NW13      29.62R
MONUMENT HILL  FAIR      48  14  25 W25       29.67S
TRINIDAD       FAIR      52  13  21 CALM      29.65F
$$

COZ042>045-048>051-090-091-051800-
...NORTHEAST COLORADO...

CITY           SKY/WX    TMP DP  RH WIND       PRES   REMARKS
GREELEY ARPT   FAIR      53  21  28 W23G30    29.61R
AKRON          FAIR      47  19  33 SW3       29.61
BURLINGTON     FAIR      53  17  24 W3        29.59
WRAY           NOT AVBL
STERLING       FAIR      36  21  55 S8        29.60S
HOLYOKE        FAIR      45  23  42 W6        29.60F
FORT MORGAN    FAIR      46  19  33 SW5       29.61S
$$

COZ086-089-092>099-051800-
...SOUTHEAST COLORADO...

CITY           SKY/WX    TMP DP  RH WIND       PRES   REMARKS
PUEBLO         FAIR      55  21  26 SE7       29.61
LA JUNTA       FAIR      49  21  33 W8        29.61
LAMAR          FAIR      46  22  38 CALM      29.58
SPRINGFIELD      N/A     61  17  18 SW6       29.60R
$$




USA.gov is the U.S. government's official web portal to all federal, state and local government web resources and services.